Location: Unspecified
(0.0000°N, 0.0000°E)
Time: 17:04:56
(UTC+00:00)

AO-73 - Pass Details

Date: 30 September 2021
Orbit: 580 x 662 km, 97.6° (Epoch: 22 October)

Event Time Altitude Azimuth Distance (km) Brightness Sun altitude
Rises 03:37:06 0° 34° (NE) 2,782 ? -33.2°
Reaches altitude 10° 03:39:35 10° 49° (NE) 1,886 ? -32.6°
Maximum altitude 03:42:49 23° 102° (ESE) 1,260 ? -31.8°
Drops below altitude 10° 03:46:04 10° 154° (SSE) 1,903 ? -30.9°
Sets 03:48:35 0° 169° (SSE) 2,814 ? -30.3°
